SM4IVE-5 Odensbacken SE current weather conditions

sailwx.info

Wind from 247 at 6 knots gusting 20

Air temperature 5.0° C
Dewpoint 1.8° C

Last reported at 2020-Feb-18 23:55 UTC.
Time now 2020-Feb-19 00:46 UTC

Location: N 59°09' E 015°32'.
View on Google Maps.

See reports from other nearby stations

  
Tides and Currents Weather Stations Pressure Air Temp Water Temp Dewpoint Dewpoint Depression Visibility Wind Speed Wind Dir Waves Ship Positions
date/time (UTC)wind fromknots sea level pressurealtimeterstation pressurevisibilityair tempwater tempwave heightnotes
2020-Feb-18 23:55 247 6 gusting 20 5.0
2020-Feb-18 23:50 218 12 gusting 20 5.0
2020-Feb-18 23:45 211 8 gusting 17 5.0
2020-Feb-18 23:40 236 6 gusting 22 5.0
2020-Feb-18 23:35 209 7 gusting 21 5.0
2020-Feb-18 23:30 233 12 gusting 21 5.0
2020-Feb-18 23:25 215 7 gusting 19 5.0
2020-Feb-18 23:20 250 11 gusting 21 5.0
2020-Feb-18 23:15 193 6 gusting 20 5.0
2020-Feb-18 23:10 221 14 gusting 21 5.0
2020-Feb-18 23:05 238 7 gusting 20 5.0
2020-Feb-18 23:00 210 11 gusting 19 5.0
2020-Feb-18 22:55 198 9 gusting 19 5.0
2020-Feb-18 22:50 360 10 gusting 21 5.0
2020-Feb-18 22:45 200 12 gusting 19 5.0
2020-Feb-18 22:40 227 8 gusting 18 5.0
2020-Feb-18 22:35 225 5 gusting 15 5.0
2020-Feb-18 22:30 246 11 gusting 15 5.0
2020-Feb-18 22:25 242 6 gusting 17 5.0
2020-Feb-18 22:20 242 9 gusting 19 5.0
2020-Feb-18 22:15 231 7 gusting 18 5.0
2020-Feb-18 22:10 360 6 gusting 15 5.0
2020-Feb-18 22:05 234 6 gusting 15 5.0
2020-Feb-18 22:01 223 4 gusting 19 5.0
2020-Feb-18 21:55 360 5 gusting 19 5.0
2020-Feb-18 21:50 220 8 gusting 19 5.0
2020-Feb-18 21:45 196 10 gusting 24 5.0
2020-Feb-18 21:40 244 8 gusting 23 5.0
2020-Feb-18 21:35 260 6 gusting 18 5.0
2020-Feb-18 21:30 265 6 gusting 13 5.0
2020-Feb-18 21:25 227 6 gusting 20 5.0
2020-Feb-18 21:20 213 10 gusting 20 5.6
2020-Feb-18 21:15 204 5 gusting 17 5.0
2020-Feb-18 21:10 220 10 gusting 17 5.6
2020-Feb-18 21:05 360 6 gusting 16 5.6
2020-Feb-18 21:00 246 7 gusting 19 5.6
2020-Feb-18 20:55 242 7 gusting 19 5.6
2020-Feb-18 20:51 360 9 gusting 19 5.6
2020-Feb-18 20:45 210 8 gusting 19 5.6
2020-Feb-18 20:40 360 6 gusting 17 5.6
2020-Feb-18 20:35 246 8 gusting 17 5.6
2020-Feb-18 20:31 240 8 gusting 20 5.6
2020-Feb-18 20:26 226 12 gusting 20 5.6
2020-Feb-18 20:20 194 11 gusting 25 5.6
2020-Feb-18 20:15 234 11 gusting 25 5.6
2020-Feb-18 20:10 261 10 gusting 20 5.6
2020-Feb-18 20:05 226 11 gusting 22 5.6
2020-Feb-18 20:00 219 11 gusting 22 5.6
2020-Feb-18 19:55 206 7 gusting 17 5.0
2020-Feb-18 19:50 247 6 gusting 18 5.0
2020-Feb-18 19:45 360 7 gusting 17 5.0
2020-Feb-18 19:40 360 5 gusting 20 5.0
2020-Feb-18 19:35 221 12 gusting 21 5.0
2020-Feb-18 19:30 226 12 gusting 19 5.0
2020-Feb-18 19:25 360 8 gusting 18 5.0
2020-Feb-18 19:20 223 9 gusting 18 5.0
2020-Feb-18 19:15 236 7 gusting 19 5.0
2020-Feb-18 19:10 205 11 gusting 23 5.6
2020-Feb-18 19:05 219 5 gusting 23 5.0
2020-Feb-18 19:00 360 8 gusting 22 5.0
2020-Feb-18 18:55 253 8 gusting 22 5.0
2020-Feb-18 18:50 199 12 gusting 21 5.0
2020-Feb-18 18:45 360 13 gusting 21 5.0
2020-Feb-18 18:40 219 7 gusting 19 5.6
2020-Feb-18 18:35 205 10 gusting 19 5.6
2020-Feb-18 18:30 219 8 gusting 18 5.6
2020-Feb-18 18:25 223 6 gusting 18 5.0
2020-Feb-18 18:20 184 6 gusting 20 5.0
2020-Feb-18 18:15 225 8 gusting 20 5.0
2020-Feb-18 18:10 360 7 gusting 15 5.0
2020-Feb-18 18:05 248 5 gusting 19 5.0
2020-Feb-18 18:00 206 10 gusting 19 5.0
2020-Feb-18 17:55 221 12 gusting 29 5.0
2020-Feb-18 17:50 215 13 gusting 29 5.6
2020-Feb-18 17:45 360 12 gusting 20 5.6
2020-Feb-18 17:40 195 11 gusting 23 5.6
2020-Feb-18 17:35 225 11 gusting 23 5.6
2020-Feb-18 17:30 217 12 gusting 20 5.6
2020-Feb-18 17:25 200 9 gusting 25 5.6
2020-Feb-18 17:20 246 11 gusting 24 5.6
2020-Feb-18 17:15 360 9 gusting 28 5.6
2020-Feb-18 17:10 241 11 gusting 28 5.6
2020-Feb-18 17:06 250 12 gusting 22 5.6
2020-Feb-18 17:00 360 10 gusting 22 5.6
2020-Feb-18 16:55 360 10 gusting 22 5.6
2020-Feb-18 16:50 217 9 gusting 22 5.6
2020-Feb-18 16:45 207 7 gusting 19 5.6
2020-Feb-18 16:40 225 12 gusting 30 5.6
2020-Feb-18 16:35 269 15 gusting 30 5.6
2020-Feb-18 16:30 232 9 gusting 21 5.6
2020-Feb-18 16:25 360 13 gusting 20 6.1
2020-Feb-18 16:20 360 13 gusting 26 6.1
2020-Feb-18 16:15 240 13 gusting 26 6.1
2020-Feb-18 16:10 360 9 gusting 24 6.1
2020-Feb-18 16:05 194 8 gusting 28 6.1
2020-Feb-18 16:00 240 10 gusting 28 6.1
2020-Feb-18 15:55 197 9 gusting 23 6.1
2020-Feb-18 15:50 213 12 gusting 28 6.1
2020-Feb-18 15:45 253 16 gusting 28 6.1
2020-Feb-18 15:40 227 7 gusting 20 6.1
2020-Feb-18 15:35 252 7 gusting 17 6.1
2020-Feb-18 15:30 247 9 gusting 19 6.1
2020-Feb-18 15:25 248 6 gusting 16 6.1
2020-Feb-18 15:21 360 8 gusting 27 6.1
2020-Feb-18 15:15 236 9 gusting 27 6.1
2020-Feb-18 15:10 219 13 gusting 21 6.7
2020-Feb-18 15:05 207 5 gusting 19 6.7
2020-Feb-18 15:00 221 6 gusting 24 6.7
2020-Feb-18 14:55 242 12 gusting 24 6.7
2020-Feb-18 14:50 241 10 gusting 26 6.7
2020-Feb-18 14:45 219 13 gusting 26 6.7
2020-Feb-18 14:40 249 11 gusting 19 6.7
2020-Feb-18 14:35 226 7 gusting 21 6.7
2020-Feb-18 14:30 220 10 gusting 24 6.7
2020-Feb-18 14:25 360 13 gusting 24 7.2
2020-Feb-18 14:20 360 5 gusting 21 7.2
2020-Feb-18 14:15 241 15 gusting 21 7.2
2020-Feb-18 14:10 217 6 gusting 22 7.2
2020-Feb-18 14:05 215 11 gusting 22 7.2
2020-Feb-18 14:00 225 8 gusting 20 7.2
2020-Feb-18 13:55 235 12 gusting 20 7.8
2020-Feb-18 13:50 261 5 gusting 18 7.8
2020-Feb-18 13:45 360 6 gusting 24 7.8
2020-Feb-18 13:40 211 13 gusting 24 7.8
2020-Feb-18 13:35 217 9 gusting 19 7.8
2020-Feb-18 13:30 222 10 gusting 19 7.8
2020-Feb-18 13:25 235 11 gusting 19 7.8
2020-Feb-18 13:20 214 12 gusting 20 7.8
2020-Feb-18 13:15 219 11 gusting 20 7.8
2020-Feb-18 13:10 235 12 gusting 26 7.8
2020-Feb-18 13:06 153 10 gusting 26 7.8
2020-Feb-18 13:00 215 6 gusting 19 7.2
2020-Feb-18 12:55 360 9 gusting 21 7.2
2020-Feb-18 12:50 218 7 gusting 18 7.2
2020-Feb-18 12:45 224 8 gusting 15 7.2
2020-Feb-18 12:40 211 5 gusting 13 7.2
2020-Feb-18 12:35 196 5 gusting 18 7.2
2020-Feb-18 12:30 218 8 gusting 18 7.2
2020-Feb-18 12:25 225 6 gusting 18 7.2
2020-Feb-18 12:20 360 6 gusting 19 7.2
2020-Feb-18 12:15 233 10 gusting 21 7.2
2020-Feb-18 12:10 220 10 gusting 21 7.8
2020-Feb-18 12:05 206 10 gusting 26 7.2
2020-Feb-18 12:00 207 6 gusting 19 7.2
2020-Feb-18 11:55 196 8 gusting 22 7.2
2020-Feb-18 11:50 206 7 gusting 25 7.2
2020-Feb-18 11:45 207 11 gusting 21 7.2
2020-Feb-18 11:40 222 12 gusting 21 7.2
2020-Feb-18 11:35 205 8 gusting 19 7.2
2020-Feb-18 11:30 226 6 gusting 33 7.2
2020-Feb-18 11:25 221 14 gusting 33 7.2
2020-Feb-18 11:20 196 6 gusting 22 7.2
2020-Feb-18 11:15 217 9 gusting 22 7.2
2020-Feb-18 11:10 188 5 gusting 20 7.2
2020-Feb-18 11:05 230 7 gusting 20 7.2
2020-Feb-18 11:00 198 10 gusting 20 7.2
2020-Feb-18 10:55 360 8 gusting 21 7.2
2020-Feb-18 10:50 213 6 gusting 21 7.2
2020-Feb-18 10:45 225 13 gusting 22 7.2
2020-Feb-18 10:40 222 11 gusting 26 7.2
2020-Feb-18 10:35 206 11 gusting 26 7.2
2020-Feb-18 10:30 207 7 gusting 19 7.2
2020-Feb-18 10:25 197 6 gusting 24 7.2
2020-Feb-18 10:20 199 10 gusting 26 7.2
2020-Feb-18 10:15 209 9 gusting 26 7.2
2020-Feb-18 10:10 360 10 gusting 19 7.2
2020-Feb-18 10:06 198 12 gusting 19 7.2
2020-Feb-18 10:00 360 3 gusting 21 7.2
2020-Feb-18 09:55 360 13 gusting 25 7.2
2020-Feb-18 09:50 236 13 gusting 23 7.2
2020-Feb-18 09:45 214 11 gusting 21 7.2
2020-Feb-18 09:40 201 10 gusting 20 7.2
2020-Feb-18 09:35 245 7 gusting 20 7.2
2020-Feb-18 09:30 228 6 gusting 20 7.2
2020-Feb-18 09:25 207 7 gusting 22 7.2
2020-Feb-18 09:20 187 11 gusting 25 7.2
2020-Feb-18 09:15 207 16 gusting 25 7.2
2020-Feb-18 09:10 360 7 gusting 21 7.2
2020-Feb-18 09:06 200 6 gusting 24 7.2
2020-Feb-18 09:00 218 13 gusting 23 7.2
2020-Feb-18 08:55 360 11 gusting 23 7.2
2020-Feb-18 08:50 232 8 gusting 22 7.2
2020-Feb-18 08:45 207 11 gusting 20 7.2
2020-Feb-18 08:40 237 6 gusting 19 7.2
2020-Feb-18 08:35 213 7 gusting 19 7.2
2020-Feb-18 08:30 360 9 gusting 21 7.2
2020-Feb-18 08:25 240 9 gusting 25 6.7
2020-Feb-18 08:20 360 14 gusting 25 6.7
2020-Feb-18 08:15 194 8 gusting 21 6.7
2020-Feb-18 08:10 254 8 gusting 21 6.7
2020-Feb-18 08:05 360 8 gusting 23 6.7
2020-Feb-18 08:00 218 8 gusting 23 6.7
2020-Feb-18 07:55 232 9 gusting 15 6.7
2020-Feb-18 07:50 215 8 gusting 24 6.7
2020-Feb-18 07:45 230 11 gusting 24 6.7
2020-Feb-18 07:40 207 12 gusting 20 6.7
2020-Feb-18 07:35 197 7 gusting 19 6.7
2020-Feb-18 07:30 201 6 gusting 19 6.7
2020-Feb-18 07:25 221 11 gusting 19 6.7
2020-Feb-18 07:20 360 8 gusting 19 6.7
2020-Feb-18 07:15 221 8 gusting 21 6.7
2020-Feb-18 07:10 242 9 gusting 25 6.7
2020-Feb-18 07:05 187 8 gusting 25 6.7
2020-Feb-18 07:00 233 10 gusting 23 6.7
2020-Feb-18 06:55 216 9 gusting 21 6.7
2020-Feb-18 06:50 236 8 gusting 21 6.7
2020-Feb-18 06:45 360 12 gusting 19 6.7
2020-Feb-18 06:40 214 7 gusting 23 6.1
2020-Feb-18 06:35 248 12 gusting 23 6.7
2020-Feb-18 06:30 236 13 gusting 27 6.7
2020-Feb-18 06:25 247 12 gusting 27 6.7
2020-Feb-18 06:20 196 10 gusting 27 6.7
2020-Feb-18 06:15 260 9 gusting 25 6.7
2020-Feb-18 06:10 237 8 gusting 25 6.7
2020-Feb-18 06:06 218 15 gusting 25 6.7
2020-Feb-18 06:00 243 12 gusting 19 6.1
2020-Feb-18 05:55 229 8 gusting 27 6.7
2020-Feb-18 05:50 221 13 gusting 26 6.7
2020-Feb-18 05:45 237 11 gusting 23 6.7
2020-Feb-18 05:40 209 4 gusting 24 6.7
2020-Feb-18 05:35 226 7 gusting 19 6.7
2020-Feb-18 05:30 251 6 gusting 27 6.7
2020-Feb-18 05:25 210 11 gusting 27 6.7
2020-Feb-18 05:20 218 11 gusting 24 6.7
2020-Feb-18 05:15 237 8 gusting 22 6.7
2020-Feb-18 05:10 256 10 gusting 31 6.7
2020-Feb-18 05:05 192 16 gusting 31 6.7
2020-Feb-18 05:00 360 11 gusting 26 6.7
2020-Feb-18 04:55 214 16 gusting 29 6.7
2020-Feb-18 04:50 209 13 gusting 26 6.7
2020-Feb-18 04:45 360 8 gusting 26 6.7
2020-Feb-18 04:40 206 18 gusting 29 6.7
2020-Feb-18 04:35 215 13 gusting 29 6.7
2020-Feb-18 04:30 243 12 gusting 32 6.7
2020-Feb-18 04:25 210 14 gusting 32 6.7
2020-Feb-18 04:20 207 11 gusting 21 6.7
2020-Feb-18 04:15 255 11 gusting 28 6.7
2020-Feb-18 04:10 191 11 gusting 26 6.7
2020-Feb-18 04:06 209 16 gusting 26 6.7
2020-Feb-18 04:00 360 13 gusting 28 6.7
2020-Feb-18 03:55 218 13 gusting 30 6.7
2020-Feb-18 03:50 218 13 gusting 25 6.7
2020-Feb-18 03:45 360 10 gusting 26 6.1
2020-Feb-18 03:40 250 9 gusting 22 6.1
2020-Feb-18 03:35 360 12 gusting 26 6.1
2020-Feb-18 03:30 227 14 gusting 26 6.1
2020-Feb-18 03:25 244 13 gusting 23 6.1
2020-Feb-18 03:20 190 8 gusting 27 6.1
2020-Feb-18 03:15 248 13 gusting 27 6.7
2020-Feb-18 03:10 360 13 gusting 21 6.7
2020-Feb-18 03:05 177 11 gusting 22 6.7
2020-Feb-18 03:00 218 9 gusting 19 6.7
2020-Feb-18 02:55 205 12 gusting 20 6.7
2020-Feb-18 02:50 205 13 gusting 20 6.7
2020-Feb-18 02:45 360 8 gusting 20 6.7
2020-Feb-18 02:40 236 13 gusting 23 6.7
2020-Feb-18 02:35 360 12 gusting 23 6.7
2020-Feb-18 02:30 360 9 gusting 21 6.7
2020-Feb-18 02:25 201 13 gusting 21 6.7
2020-Feb-18 02:20 211 10 gusting 22 6.7
2020-Feb-18 02:15 234 10 gusting 22 7.2
2020-Feb-18 02:10 221 13 gusting 22 7.2
2020-Feb-18 02:06 360 11 gusting 21 7.2
2020-Feb-18 02:00 196 8 gusting 20 7.2
2020-Feb-18 01:55 222 7 gusting 18 7.2
2020-Feb-18 01:50 227 11 gusting 24 7.2
2020-Feb-18 01:45 211 11 gusting 24 7.2
2020-Feb-18 01:40 222 16 gusting 20 7.2
2020-Feb-18 01:35 360 10 gusting 28 7.2
2020-Feb-18 01:30 238 11 gusting 28 7.2
2020-Feb-18 01:25 232 12 gusting 23 7.2
2020-Feb-18 01:20 196 13 gusting 23 7.2
2020-Feb-18 01:15 360 10 gusting 24 7.2
2020-Feb-18 01:10 205 13 gusting 24 7.2
2020-Feb-18 01:05 231 7 gusting 30 7.2
2020-Feb-18 01:00 226 13 gusting 30 7.2
2020-Feb-18 00:55 360 10 gusting 24 7.2
2020-Feb-18 00:50 207 12 gusting 25 7.2
2020-Feb-18 00:45 243 12 gusting 24 7.2
2020-Feb-18 00:40 204 15 gusting 24 7.2
2020-Feb-18 00:35 360 11 gusting 27 7.2
2020-Feb-18 00:30 187 10 gusting 28 7.2
2020-Feb-18 00:25 246 14 gusting 28 7.2
2020-Feb-18 00:20 240 10 gusting 29 7.2
2020-Feb-18 00:15 221 10 gusting 26 7.2
2020-Feb-18 00:10 225 12 gusting 26 7.2
2020-Feb-18 00:06 253 16 gusting 27 7.2
2020-Feb-18 00:00 360 10 gusting 23 7.2
2020-Feb-17 23:55 221 12 gusting 23 7.2
2020-Feb-17 23:50 205 13 gusting 36 7.2
2020-Feb-17 23:45 232 16 gusting 31 7.2
2020-Feb-17 23:40 244 21 gusting 31 7.2
2020-Feb-17 23:35 236 11 gusting 32 7.2
2020-Feb-17 23:30 360 18 gusting 27 7.2
2020-Feb-17 23:25 360 9 gusting 28 7.2
2020-Feb-17 23:20 360 15 gusting 30 7.2
2020-Feb-17 23:15 238 16 gusting 30 7.2
2020-Feb-17 23:10 223 14 gusting 31 7.8
2020-Feb-17 23:05 190 19 gusting 31 7.8
2020-Feb-17 23:00 268 17 gusting 29 7.2
2020-Feb-17 22:55 242 13 gusting 26 7.2
2020-Feb-17 22:50 199 13 gusting 26 7.2
2020-Feb-17 22:45 236 11 gusting 24 7.2
2020-Feb-17 22:40 234 17 gusting 28 7.2
2020-Feb-17 22:35 209 19 gusting 34 7.2
2020-Feb-17 22:30 222 18 gusting 34 7.2
2020-Feb-17 22:25 205 15 gusting 26 7.2
2020-Feb-17 22:20 219 13 gusting 29 7.2
2020-Feb-17 22:15 360 17 gusting 29 7.2
2020-Feb-17 22:10 203 13 gusting 24 7.2
2020-Feb-17 22:05 203 13 gusting 27 7.2
2020-Feb-17 22:00 198 13 gusting 28 7.2
2020-Feb-17 21:55 233 12 gusting 26 7.2
2020-Feb-17 21:50 202 13 gusting 26 7.2
2020-Feb-17 21:45 199 13 gusting 23 7.2
2020-Feb-17 21:40 205 12 gusting 25 6.7
2020-Feb-17 21:35 204 10 gusting 21 6.7
2020-Feb-17 21:30 216 12 gusting 26 6.7
2020-Feb-17 21:25 222 13 gusting 30 6.7
2020-Feb-17 21:20 224 16 gusting 30 6.7
2020-Feb-17 21:15 360 15 gusting 26 6.7
2020-Feb-17 21:10 217 11 gusting 23 6.7
2020-Feb-17 21:05 360 10 gusting 30 6.7
2020-Feb-17 21:00 130 8 gusting 24 6.7
2020-Feb-17 20:55 207 9 gusting 26 6.7
2020-Feb-17 20:50 213 9 gusting 26 6.7
2020-Feb-17 20:45 196 14 gusting 26 6.7
2020-Feb-17 20:40 208 10 gusting 26 6.7
2020-Feb-17 20:35 219 13 gusting 27 6.7
2020-Feb-17 20:30 214 18 gusting 27 6.7
2020-Feb-17 20:25 203 15 gusting 27 6.7
2020-Feb-17 20:20 227 13 gusting 25 6.7
2020-Feb-17 20:15 202 7 gusting 32 6.7
2020-Feb-17 20:10 200 13 gusting 32 6.7
2020-Feb-17 20:06 194 11 gusting 23 6.7
2020-Feb-17 20:00 202 10 gusting 23 6.7
2020-Feb-17 19:55 360 6 gusting 29 6.7
2020-Feb-17 19:50 202 10 gusting 29 6.7
2020-Feb-17 19:45 360 13 gusting 26 6.7
2020-Feb-17 19:40 207 15 gusting 26 6.7
2020-Feb-17 19:35 216 13 gusting 26 6.7
2020-Feb-17 19:30 224 13 gusting 27 6.7
2020-Feb-17 19:25 198 16 gusting 26 6.7
2020-Feb-17 19:20 360 14 gusting 38 6.7
2020-Feb-17 19:15 198 12 gusting 31 6.7
2020-Feb-17 19:10 248 11 gusting 24 6.7
2020-Feb-17 19:05 360 13 gusting 26 6.7
2020-Feb-17 19:00 178 15 gusting 26 6.7
2020-Feb-17 18:55 196 13 gusting 31 6.7
2020-Feb-17 18:50 218 14 gusting 31 6.7
2020-Feb-17 18:45 200 12 gusting 26 6.7
2020-Feb-17 18:40 219 12 gusting 29 6.7
2020-Feb-17 18:35 211 14 gusting 29 6.7
2020-Feb-17 18:30 213 12 gusting 25 6.7
2020-Feb-17 18:25 224 13 gusting 23 6.1
2020-Feb-17 18:20 209 14 gusting 30 6.7
2020-Feb-17 18:15 229 19 gusting 33 6.7
2020-Feb-17 18:05 217 10 gusting 31 6.1
2020-Feb-17 18:00 360 18 gusting 31 6.1
2020-Feb-17 17:55 215 13 gusting 30 6.1
2020-Feb-17 17:50 202 13 gusting 28 6.1
2020-Feb-17 17:45 203 12 gusting 28 6.1
2020-Feb-17 17:40 188 14 gusting 27 6.1
2020-Feb-17 17:35 205 14 gusting 34 6.1
2020-Feb-17 17:30 220 16 gusting 34 6.1
2020-Feb-17 17:25 246 14 gusting 32 6.1
2020-Feb-17 17:20 203 19 gusting 32 6.7
2020-Feb-17 17:15 222 16 gusting 33 6.7
2020-Feb-17 17:10 360 15 gusting 39 6.7
2020-Feb-17 17:06 227 20 gusting 39 6.7
2020-Feb-17 17:00 201 17 gusting 32 6.7
2020-Feb-17 16:55 217 12 gusting 29 6.1
2020-Feb-17 16:50 263 18 gusting 29 6.1
2020-Feb-17 16:45 232 16 gusting 29 6.1
2020-Feb-17 16:40 198 12 gusting 29 6.1
2020-Feb-17 16:35 217 16 gusting 29 6.1
2020-Feb-17 16:30 194 10 gusting 24 6.1
2020-Feb-17 16:25 209 12 gusting 25 5.6
2020-Feb-17 16:20 238 7 gusting 25 6.1
2020-Feb-17 16:12 208 13 gusting 30 6.1
2020-Feb-17 16:00 223 10 gusting 26 6.7
2020-Feb-17 15:55 217 13 gusting 27 6.7
2020-Feb-17 15:50 249 8 gusting 33 6.7
2020-Feb-17 15:45 200 17 gusting 33 7.2
2020-Feb-17 15:40 187 18 gusting 31 7.2
2020-Feb-17 15:35 215 12 gusting 25 7.2
2020-Feb-17 15:30 196 12 gusting 26 7.2
2020-Feb-17 15:25 237 14 gusting 34 7.2
2020-Feb-17 15:20 199 13 gusting 29 7.2
2020-Feb-17 15:15 198 12 gusting 29 7.2
2020-Feb-17 15:10 360 14 gusting 30 7.2
2020-Feb-17 15:05 217 15 gusting 30 7.2
2020-Feb-17 15:00 213 11 gusting 26 7.2
2020-Feb-17 14:55 213 14 gusting 26 7.2
2020-Feb-17 14:50 231 13 gusting 24 7.2
2020-Feb-17 14:45 202 13 gusting 24 7.2
2020-Feb-17 14:40 211 6 gusting 26 7.2
2020-Feb-17 14:35 234 14 gusting 28 7.2
2020-Feb-17 14:30 210 13 gusting 29 7.2
2020-Feb-17 14:25 225 13 gusting 33 7.2
2020-Feb-17 14:20 172 16 gusting 33 7.2
2020-Feb-17 14:15 208 14 gusting 26 7.2
2020-Feb-17 14:10 360 13 gusting 29 7.2
2020-Feb-17 14:05 213 15 gusting 29 7.2
2020-Feb-17 14:00 213 13 gusting 29 7.2
2020-Feb-17 13:55 211 10 gusting 25 7.2
2020-Feb-17 13:50 196 9 gusting 25 7.2
2020-Feb-17 13:45 360 8 gusting 26 7.2
2020-Feb-17 13:40 360 13 gusting 26 7.2
2020-Feb-17 13:35 196 11 gusting 22 6.7
2020-Feb-17 13:30 196 6 gusting 27 6.7
2020-Feb-17 13:25 211 8 gusting 28 6.7
2020-Feb-17 13:20 198 9 gusting 25 6.7
2020-Feb-17 13:15 202 11 gusting 23 6.1
2020-Feb-17 13:10 205 9 gusting 24 6.1
2020-Feb-17 13:06 221 14 gusting 24 6.1
2020-Feb-17 13:00 209 11 gusting 19 6.7
2020-Feb-17 12:55 208 14 gusting 28 7.2
2020-Feb-17 12:50 227 17 gusting 28 7.2
2020-Feb-17 12:45 203 13 gusting 27 6.7
2020-Feb-17 12:40 205 11 gusting 25 6.7
2020-Feb-17 12:35 192 16 gusting 25 7.2
2020-Feb-17 12:30 209 13 gusting 29 7.2
2020-Feb-17 12:25 232 11 gusting 29 7.2
2020-Feb-17 12:20 360 9 gusting 23 7.2
2020-Feb-17 12:15 182 10 gusting 23 7.2
2020-Feb-17 12:10 214 9 gusting 26 7.2
2020-Feb-17 12:05 192 8 gusting 26 7.2
2020-Feb-17 12:00 229 13 gusting 29 7.2
2020-Feb-17 11:55 207 13 gusting 29 7.2
2020-Feb-17 11:50 236 13 gusting 24 7.2
2020-Feb-17 11:45 198 10 gusting 30 7.2
2020-Feb-17 11:40 219 9 gusting 25 6.7
2020-Feb-17 11:35 209 10 gusting 23 6.1
2020-Feb-17 11:30 360 13 gusting 23 6.1
2020-Feb-17 11:25 209 6 gusting 22 6.1
2020-Feb-17 11:20 360 7 gusting 23 6.1
2020-Feb-17 11:15 241 10 gusting 34 6.1
2020-Feb-17 11:10 217 15 gusting 34 6.7
2020-Feb-17 11:05 225 19 gusting 29 7.2
2020-Feb-17 11:00 238 19 gusting 29 7.2
2020-Feb-17 10:55 178 14 gusting 30 7.8
2020-Feb-17 10:50 202 13 gusting 29 7.8
2020-Feb-17 10:45 260 10 gusting 31 7.8
2020-Feb-17 10:40 207 11 gusting 25 7.2
2020-Feb-17 10:35 178 12 gusting 26 7.2
2020-Feb-17 10:30 219 12 gusting 26 7.2
2020-Feb-17 10:25 232 10 gusting 28 7.2
2020-Feb-17 10:20 205 12 gusting 29 7.2
2020-Feb-17 10:15 221 17 gusting 34 7.2
2020-Feb-17 10:10 236 16 gusting 34 7.8
2020-Feb-17 10:06 198 11 gusting 30 7.8
2020-Feb-17 10:00 209 12 gusting 30 7.8
2020-Feb-17 09:55 210 11 gusting 27 7.8
2020-Feb-17 09:50 206 12 gusting 27 7.2
2020-Feb-17 09:45 213 14 gusting 30 7.2
2020-Feb-17 09:40 203 15 gusting 30 7.2
2020-Feb-17 09:35 360 13 gusting 23 7.2
2020-Feb-17 09:30 205 7 gusting 21 7.2
2020-Feb-17 09:25 201 12 gusting 25 7.2
2020-Feb-17 09:20 204 11 gusting 28 7.2
2020-Feb-17 09:15 199 14 gusting 27 7.2
2020-Feb-17 09:10 222 14 gusting 27 6.7
2020-Feb-17 09:05 196 12 gusting 26 6.7
2020-Feb-17 09:00 226 10 gusting 26 7.2
2020-Feb-17 08:55 217 13 gusting 26 7.2
2020-Feb-17 08:50 360 14 gusting 26 6.7
2020-Feb-17 08:45 205 8 gusting 24 6.7
2020-Feb-17 08:40 206 13 gusting 24 6.7
2020-Feb-17 08:35 226 11 gusting 26 6.1
2020-Feb-17 08:30 213 11 gusting 26 6.1
2020-Feb-17 08:25 360 8 gusting 24 6.1
2020-Feb-17 08:20 360 10 gusting 19 6.1
2020-Feb-17 08:15 189 7 gusting 18 6.1
2020-Feb-17 08:10 227 9 gusting 18 6.1
2020-Feb-17 08:06 246 9 gusting 18 5.6
2020-Feb-17 08:00 360 6 gusting 18 5.6
2020-Feb-17 07:55 360 6 gusting 26 5.6
2020-Feb-17 07:50 210 11 gusting 26 5.6
2020-Feb-17 07:45 197 8 gusting 24 5.6
2020-Feb-17 07:40 218 16 gusting 24 5.6
2020-Feb-17 07:35 217 7 gusting 26 6.1
2020-Feb-17 07:30 360 10 gusting 19 5.6
2020-Feb-17 07:25 189 6 gusting 22 5.6
2020-Feb-17 07:20 214 12 gusting 22 5.6
2020-Feb-17 07:15 194 11 gusting 21 5.6
2020-Feb-17 07:10 360 11 gusting 19 5.6
2020-Feb-17 07:05 211 7 gusting 24 5.6
2020-Feb-17 07:00 208 13 gusting 23 5.6
2020-Feb-17 06:55 360 9 gusting 23 5.6
2020-Feb-17 06:50 360 11 gusting 22 5.6
2020-Feb-17 06:45 196 11 gusting 22 5.6
2020-Feb-17 06:40 225 12 gusting 20 5.6
2020-Feb-17 06:35 197 6 gusting 22 5.6
2020-Feb-17 06:30 187 6 gusting 22 5.0
2020-Feb-17 06:25 192 8 gusting 19 5.0
2020-Feb-17 06:20 214 6 gusting 20 5.0
2020-Feb-17 06:15 221 8 gusting 22 5.6
2020-Feb-17 06:10 190 8 gusting 22 5.6
2020-Feb-17 06:05 194 9 gusting 21 5.6
2020-Feb-17 06:00 202 6 gusting 16 5.0
2020-Feb-17 05:55 360 6 gusting 18 5.0
2020-Feb-17 05:50 184 6 gusting 20 5.0
2020-Feb-17 05:45 188 9 gusting 20 5.0
2020-Feb-17 05:40 186 4 gusting 18 5.0
2020-Feb-17 05:35 196 5 gusting 19 5.0
2020-Feb-17 05:30 221 8 gusting 19 5.0
2020-Feb-17 05:25 360 6 gusting 16 5.0
2020-Feb-17 05:20 360 6 gusting 12 5.0
2020-Feb-17 05:15 211 5 gusting 16 4.4
2020-Feb-17 05:10 210 6 gusting 16 4.4
2020-Feb-17 05:06 360 5 gusting 19 4.4
2020-Feb-17 05:00 219 6 gusting 22 5.0
2020-Feb-17 04:55 200 6 gusting 21 5.0
2020-Feb-17 04:50 221 8 gusting 19 5.6
2020-Feb-17 04:45 215 6 gusting 14 5.6
2020-Feb-17 04:40 215 6 gusting 18 5.6
2020-Feb-17 04:35 187 5 gusting 18 5.6
2020-Feb-17 04:30 203 6 gusting 13 5.6
2020-Feb-17 04:25 187 5 gusting 17 5.6
2020-Feb-17 04:20 360 7 gusting 22 5.6
2020-Feb-17 04:15 207 8 gusting 22 5.6
2020-Feb-17 04:10 185 3 gusting 19 5.6
2020-Feb-17 04:05 209 6 gusting 19 5.6
2020-Feb-17 04:00 215 6 gusting 19 5.6
2020-Feb-17 03:55 190 7 gusting 19 5.0
2020-Feb-17 03:50 206 4 gusting 11 5.0
2020-Feb-17 03:45 201 6 gusting 19 5.0
2020-Feb-17 03:40 203 10 gusting 19 5.0
2020-Feb-17 03:35 215 4 gusting 16 5.0
2020-Feb-17 03:30 198 6 gusting 19 5.0
2020-Feb-17 03:25 202 4 gusting 19 5.0
2020-Feb-17 03:20 184 6 gusting 19 5.0
2020-Feb-17 03:15 190 6 gusting 23 5.0
2020-Feb-17 03:10 240 7 gusting 23 5.6
2020-Feb-17 03:06 205 7 gusting 18 5.0
2020-Feb-17 03:00 202 9 gusting 18 5.0
2020-Feb-17 02:55 192 5 gusting 23 5.0
2020-Feb-17 02:50 217 3 gusting 12 5.0
2020-Feb-17 02:45 199 4 gusting 11 5.0
2020-Feb-17 02:40 196 3 gusting 17 5.0
2020-Feb-17 02:35 196 6 gusting 17 4.4
2020-Feb-17 02:30 194 3 gusting 16 4.4
2020-Feb-17 02:25 207 6 gusting 14 4.4
2020-Feb-17 02:20 202 6 gusting 17 3.9
2020-Feb-17 02:15 211 6 gusting 17 3.9
2020-Feb-17 02:10 221 4 gusting 13 3.9
2020-Feb-17 02:05 360 3 gusting 15 3.9
2020-Feb-17 02:00 197 4 gusting 15 3.9
2020-Feb-17 01:55 232 5 gusting 14 3.9
2020-Feb-17 01:50 200 7 gusting 13 3.9
2020-Feb-17 01:45 186 3 gusting 18 4.4
2020-Feb-17 01:40 360 6 gusting 19 4.4
2020-Feb-17 01:35 202 7 gusting 15 4.4
2020-Feb-17 01:30 199 3 gusting 19 4.4
2020-Feb-17 01:25 219 6 gusting 19 4.4
2020-Feb-17 01:20 193 5 gusting 19 4.4
2020-Feb-17 01:15 215 4 gusting 19 4.4
2020-Feb-17 01:10 206 3 gusting 16 4.4
2020-Feb-17 01:05 200 5 gusting 14 4.4
2020-Feb-17 01:00 196 5 gusting 15 4.4
2020-Feb-17 00:55 194 6 gusting 19 4.4
2020-Feb-17 00:50 209 7 gusting 19 4.4
2020-Feb-17 00:45 200 7 gusting 15 4.4
2020-Feb-17 00:40 191 5 gusting 13 4.4
2020-Feb-17 00:35 218 4 gusting 11 4.4
2020-Feb-17 00:30 216 3 gusting 12 4.4
2020-Feb-17 00:25 199 2 gusting 12 4.4
2020-Feb-17 00:20 360 6 gusting 12 5.0
2020-Feb-17 00:15 200 4 gusting 13 5.0
2020-Feb-17 00:10 191 4 gusting 13 5.0
2020-Feb-17 00:05 203 6 gusting 15 5.0
2020-Feb-17 00:00 213 6 gusting 16 5.0